User: anonymous   Login
Location: Middelsbur
(53.6609°N, 7.5020°E)
Time: 08:47:32
(UTC+00:00)
Language:

Cosmos 1825 - Orbit

View from above orbital plane
View from above orbital plane
View from above satellite
View from above satellite

Ground track
Ground track

The orbit data is extracted from the following two-line orbital elements,

1 17566U 87024A   20265.84648934  .00000429  00000-0  18307-4 0  9995
2 17566  82.5076 186.2818 0004751  37.6030 322.5536 15.20139357834956
Epoch (UTC): 21 September 2020 20:18:56
Eccentricity: 0.0004751
inclination: 82.5076°
perigee height: 502 km
apogee height: 508 km
right ascension of ascending node: 186.2818°
argument of perigee: 37.6030°
revolutions per day: 15.20139357
mean anomaly at epoch: 322.5536°
orbit number at epoch: 83495

The dashed part of the orbit path shows where the satellite is in the earth's shadow,  

DLR